STARLINK-37571, 69043

Orbit data source: Space-Track

STARLINK-37571, 69043 is a payload satellite owned by SpaceX/Seattle (US) in SSO that was launched on Wed, 06 May 2026 UTC via an FALCON 9 launch vehicle from the Air Force Western Test Range (AFWTR). Payload-class satellites include a variety of spacecraft equipped with specific instruments for various scientific and technological missions. These include communications satellites like Starlink; space stations such as the ISS; scientific satellites like the Hubble; Earth observation satellites from companies like Planet Labs, Umbra, and HawkEye 360; GPS; miniature CubeSats for education and research; and military/defense satellites.

Loading next visibility...
Identifier
69043, 2026-101U
Orbit
SSO
Country
Flag of USUS
Related business
Manufacturer
SpaceX/Seattle
Mission
Operational Commercial Communications
Bus & Motor
STARLINK V2MO, Unknown motor
Mass
575 kg wet, ~530 kg dry
Launch date (UTC)
2026-05-06 (3 months ago)
Launch vehicle
FALCON 9
Launch site
Air Force Western Test Range (AFWTR)
Object type
Payload
Rocket body
Debris
Shape & HBR
Box + 2 Pan, 17.7 m
Radar Cross Section
36.964 m², Large (>1 m²)

Expand to show TLE details & history
Last TLE update: 14 hours ago

TLE from 14 hours ago
0 STARLINK-37571
1 69043U 26101U   26206.56650598  .00024916  00000-0  77179-3 0  9998
2 69043  97.2869  60.8567 0001668  86.7387 273.4047 15.33434719 12456
Epoch: 2026-07-25T13:35Z
TLE epoch observation values (Epoch: 2026-07-25T13:35:46.116Z)
Latitude
0.00001°
Longitude
-86.3624°
Altitude
468.618 km
Speed
7.632 km/s
True Right ascension
04h 03m 25s
True Declination
0° 00' 00"
Sunlit
Object was in daylight at epoch
Visualization orbit readout
Latitude
Unknown
Longitude
Unknown
Altitude
Unknown
Speed
Unknown
Apparent Right ascension
Unknown
Apparent Declination
Unknown
Sunlit
N/A
Visualization observer readout
Local Sidereal Time
17:02:06
Azimuth
Unknown
Elevation
Unknown
Doppler factor
Unknown
Orbital elements
Apogee altitude
463.658 km
Perigee altitude
461.376 km
Semi-major axis
6,840.654 km
Eccentricity
0.00017
Inclination
97.2869°
RAAN
60.8567°
Arg. of periapsis
86.7387°
True anomaly
273.38562°
Mean anomaly
273.4047°
Eccentric anomaly
273.39516°
Mean motion
3.83616 °/min
Orbital period
93.84 mins
BSTAR
0.00077179
Loading maneuver chart data...
Computing Atmospheric mass density...
Loading historical data...
Loading historical data...
Loading historical data...
Loading historical data...
Loading historical data...
Loading historical data...
Loading historical data...

Documentation

Showing up to 5 results
|